Regional Weather Roundup
Issued by NWS

Home | Current Version | Previous Version | Graphics & Text | Print | Product List | Glossary On
Versions: 1 2 3 4 5 6 7 8 9 10 11 12 13 14 15 16 17 18 19 20 21 22 23 24 25 26 27 28 29 30 31 32 33 34 35 36 37 38 39 40 41 42 43 44 45 46 47 48 49 50
000
ASUS43 KTOP 271308
RWRKS

WEATHER ROUNDUP FOR KANSAS
NATIONAL WEATHER SERVICE GOODLAND KS
700 AM CST THU NOV 27 2014

NOTE:  "FAIR" INDICATES FEW OR NO CLOUDS BELOW 12,000 FEET WITH NO
SIGNIFICANT WEATHER AND/OR OBSTRUCTIONS TO VISIBILITY.

KSZ001>006-013>018-027>032-041>047-271400-
NORTHWEST KANSAS

CITY           SKY/WX    TMP DP  RH WIND       PRES   REMARKS
GOODLAND       CLEAR     23  17  78 S12       30.27F WCI  12
HAYS           PTCLDY    19   9  63 S9        30.42F
HILL CITY      PTCLDY    23  16  74 S6        30.38F
RUSSELL        PTCLDY    19  16  88 S10       30.41F WCI   7
$$

KSZ061>065-074>080-084>089-271400-
SOUTHWEST KANSAS

CITY           SKY/WX    TMP DP  RH WIND       PRES   REMARKS
DODGE CITY     PTCLDY    21  15  78 S8        30.41F
ELKHART          N/A     26  14  60 S9          N/A
GARDEN CITY    PTCLDY    20  16  84 S10       30.37F WCI   9
GREAT BEND     CLEAR     19  10  68 SE6       30.46S
LIBERAL        PTCLDY    25  12  58 S7        30.43S
PRATT          CLEAR     25  19  80 CALM      30.46R
$$

KSZ066>073-081>083-090>101-271400-
SOUTHEAST KANSAS

CITY           SKY/WX    TMP DP  RH WIND       PRES   REMARKS
CHANUTE        CLEAR     20  18  92 W5        30.52R
COFFEYVILLE    CLEAR     23  19  85 NW6       30.54R
HUTCHINSON     CLEAR     19  12  74 CALM      30.49S
MEDICINE LODGE   N/A     21  18  88 CALM      30.49R
NEWTON         CLEAR     19  12  73 N3        30.50S
PARSONS        CLEAR     20  18  92 CALM      30.54R
WICHITA INTL   PTCLDY    25  17  72 N3        30.50R
WICHITA JABRA  CLEAR     21  16  81 N5        30.49S
WICHITA MCCONL CLEAR     23  20  90 CALM      30.49S
WINFIELD       CLEAR     24  19  81 NE5       30.52R
$$

KSZ007>012-019>026-033>040-048>060-102>105-271400-
NORTHEAST KANSAS

CITY           SKY/WX    TMP DP  RH WIND       PRES   REMARKS
CONCORDIA      CLEAR     15  12  88 CALM      30.50R
EMPORIA        PTCLDY    17  15  92 CALM      30.51R
LAWRENCE       CLOUDY    24  18  77 N5        30.52R HAZE
MANHATTAN      PTCLDY    15  13  91 CALM      30.52R
MARYSVILLE     CLOUDY    19  14  79 CALM      30.51R
OLATHE IND     CLOUDY    23  20  88 NW6       30.50R
OLATHE EXE     MOCLDY    24  19  81 NW6       30.48R
SALINA         PTCLDY    19  13  77 S3        30.50F
TOPEKA BILLARD CLOUDY    25  19  78 N7        30.53R
TOPEKA FORBES  CLOUDY    25  19  78 N3        30.50R
$$



USA.gov is the U.S. government's official web portal to all federal, state and local government web resources and services.